Year,Month,Day,Hour,Minute,Value (Times are PST for temperature in C)
2013,05,24,00,00,9.70
2013,05,24,00,01,9.70
2013,05,24,00,02,9.70
2013,05,24,00,03,9.70
2013,05,24,00,04,9.70
2013,05,24,00,05,9.70
2013,05,24,00,06,9.70
2013,05,24,00,07,9.70
2013,05,24,00,08,9.70
2013,05,24,00,09,9.70
2013,05,24,00,10,9.70
2013,05,24,00,11,9.70
2013,05,24,00,12,9.70
2013,05,24,00,13,9.60
2013,05,24,00,14,9.60
2013,05,24,00,15,9.60
2013,05,24,00,16,9.60
2013,05,24,00,17,9.60
2013,05,24,00,18,9.60
2013,05,24,00,19,9.60
2013,05,24,00,20,9.60
2013,05,24,00,21,9.50
2013,05,24,00,22,9.50
2013,05,24,00,23,9.50
2013,05,24,00,24,9.50
2013,05,24,00,25,9.40
2013,05,24,00,26,9.40
2013,05,24,00,27,9.40
2013,05,24,00,28,9.40
2013,05,24,00,29,9.40
2013,05,24,00,30,9.40
2013,05,24,00,31,9.40
2013,05,24,00,32,9.30
2013,05,24,00,33,9.30
2013,05,24,00,34,9.30
2013,05,24,00,35,9.30
2013,05,24,00,36,9.30
2013,05,24,00,37,9.30
2013,05,24,00,38,9.20
2013,05,24,00,39,9.20
2013,05,24,00,40,9.20
2013,05,24,00,41,9.20
2013,05,24,00,42,9.20
2013,05,24,00,43,9.20
2013,05,24,00,44,9.20
2013,05,24,00,45,9.20
2013,05,24,00,46,9.20
2013,05,24,00,47,9.20
2013,05,24,00,48,9.20
2013,05,24,00,49,9.20
2013,05,24,00,50,9.20
2013,05,24,00,51,9.20
2013,05,24,00,52,9.20
2013,05,24,00,53,9.20
2013,05,24,00,54,9.10
2013,05,24,00,55,9.10
2013,05,24,00,56,9.10
2013,05,24,00,57,9.10
2013,05,24,00,58,9.10
2013,05,24,00,59,9.10
2013,05,24,01,00,9.10
2013,05,24,01,01,9.10
2013,05,24,01,02,9.10
2013,05,24,01,03,9.10
2013,05,24,01,04,9.10
2013,05,24,01,05,9.10
2013,05,24,01,06,9.10
2013,05,24,01,07,9.10
2013,05,24,01,08,9.10
2013,05,24,01,09,9.10
2013,05,24,01,10,9.10
2013,05,24,01,11,9.10
2013,05,24,01,12,9.10
2013,05,24,01,13,9.10
2013,05,24,01,14,9.10
2013,05,24,01,15,9.10
2013,05,24,01,16,9.10
2013,05,24,01,17,9.10
2013,05,24,01,18,9.10
2013,05,24,01,19,9.10
2013,05,24,01,20,9.10
2013,05,24,01,21,9.10
2013,05,24,01,22,9.00
2013,05,24,01,23,9.00
2013,05,24,01,24,9.00
2013,05,24,01,25,9.00
2013,05,24,01,26,9.00
2013,05,24,01,27,9.00
2013,05,24,01,28,9.00
2013,05,24,01,29,9.00
2013,05,24,01,30,9.00
2013,05,24,01,31,9.00
2013,05,24,01,32,8.90
2013,05,24,01,33,8.90
2013,05,24,01,34,8.90
2013,05,24,01,35,8.90
2013,05,24,01,36,8.90
2013,05,24,01,37,8.90
2013,05,24,01,38,8.90
2013,05,24,01,39,8.80
2013,05,24,01,40,8.90
2013,05,24,01,41,8.90
2013,05,24,01,42,8.90
2013,05,24,01,43,8.90
2013,05,24,01,44,8.90
2013,05,24,01,45,8.90
2013,05,24,01,46,8.90
2013,05,24,01,47,8.90
2013,05,24,01,48,9.00
2013,05,24,01,49,9.00
2013,05,24,01,50,9.00
2013,05,24,01,51,9.00
2013,05,24,01,52,9.00
2013,05,24,01,53,8.90
2013,05,24,01,54,8.90
2013,05,24,01,55,9.00
2013,05,24,01,56,9.00
2013,05,24,01,57,8.90
2013,05,24,01,58,8.90
2013,05,24,01,59,8.90
2013,05,24,02,00,8.90
2013,05,24,02,01,8.90
2013,05,24,02,02,8.80
2013,05,24,02,03,8.80
2013,05,24,02,04,8.80
2013,05,24,02,05,8.80
2013,05,24,02,06,8.70
2013,05,24,02,07,8.70
2013,05,24,02,08,8.70
2013,05,24,02,09,8.80
2013,05,24,02,10,8.80
2013,05,24,02,11,8.80
2013,05,24,02,12,8.80
2013,05,24,02,13,8.80
2013,05,24,02,14,8.80
2013,05,24,02,15,8.80
2013,05,24,02,16,8.80
2013,05,24,02,17,8.80
2013,05,24,02,18,8.80
2013,05,24,02,19,8.80
2013,05,24,02,20,8.80
2013,05,24,02,21,8.80
2013,05,24,02,22,8.80
2013,05,24,02,23,8.80
2013,05,24,02,24,8.80
2013,05,24,02,25,8.80
2013,05,24,02,26,8.80
2013,05,24,02,27,8.80
2013,05,24,02,28,8.80
2013,05,24,02,29,8.80
2013,05,24,02,30,8.80
2013,05,24,02,31,8.80
2013,05,24,02,32,8.80
2013,05,24,02,33,8.80
2013,05,24,02,34,8.80
2013,05,24,02,35,8.80
2013,05,24,02,36,8.70
2013,05,24,02,37,8.70
2013,05,24,02,38,8.70
2013,05,24,02,39,8.70
2013,05,24,02,40,8.70
2013,05,24,02,41,8.70
2013,05,24,02,42,8.70
2013,05,24,02,43,8.70
2013,05,24,02,44,8.70
2013,05,24,02,45,8.70
2013,05,24,02,46,8.70
2013,05,24,02,47,8.70
2013,05,24,02,48,8.70
2013,05,24,02,49,8.70
2013,05,24,02,50,8.70
2013,05,24,02,51,8.60
2013,05,24,02,52,8.60
2013,05,24,02,53,8.60
2013,05,24,02,54,8.60
2013,05,24,02,55,8.50
2013,05,24,02,56,8.50
2013,05,24,02,57,8.50
2013,05,24,02,58,8.50
2013,05,24,02,59,8.60
2013,05,24,03,00,8.60
2013,05,24,03,01,8.60
2013,05,24,03,02,8.60
2013,05,24,03,03,8.60
2013,05,24,03,04,8.60
2013,05,24,03,05,8.60
2013,05,24,03,06,8.60
2013,05,24,03,07,8.60
2013,05,24,03,08,8.60
2013,05,24,03,09,8.60
2013,05,24,03,10,8.50
2013,05,24,03,11,8.50
2013,05,24,03,12,8.50
2013,05,24,03,13,8.40
2013,05,24,03,14,8.40
2013,05,24,03,15,8.40
2013,05,24,03,16,8.30
2013,05,24,03,17,8.30
2013,05,24,03,18,8.20
2013,05,24,03,19,8.20
2013,05,24,03,20,8.20
2013,05,24,03,21,8.30
2013,05,24,03,22,8.30
2013,05,24,03,23,8.30
2013,05,24,03,24,8.30
2013,05,24,03,25,8.30
2013,05,24,03,26,8.40
2013,05,24,03,27,8.40
2013,05,24,03,28,8.40
2013,05,24,03,29,8.40
2013,05,24,03,30,8.40
2013,05,24,03,31,8.40
2013,05,24,03,32,8.40
2013,05,24,03,33,8.40
2013,05,24,03,34,8.40
2013,05,24,03,35,8.40
2013,05,24,03,36,8.40
2013,05,24,03,37,8.40
2013,05,24,03,38,8.40
2013,05,24,03,39,8.40
2013,05,24,03,40,8.40
2013,05,24,03,41,8.40
2013,05,24,03,42,8.40
2013,05,24,03,43,8.50
2013,05,24,03,44,8.50
2013,05,24,03,45,8.50
2013,05,24,03,46,8.50
2013,05,24,03,47,8.50
2013,05,24,03,48,8.50
2013,05,24,03,49,8.50
2013,05,24,03,50,8.50
2013,05,24,03,51,8.50
2013,05,24,03,52,8.50
2013,05,24,03,53,8.50
2013,05,24,03,54,8.50
2013,05,24,03,55,8.40
2013,05,24,03,56,8.40
2013,05,24,03,57,8.40
2013,05,24,03,58,8.40
2013,05,24,03,59,8.40
2013,05,24,04,00,8.40
2013,05,24,04,01,8.40
2013,05,24,04,02,8.40
2013,05,24,04,03,8.30
2013,05,24,04,04,8.30
2013,05,24,04,05,8.30
2013,05,24,04,06,8.30
2013,05,24,04,07,8.20
2013,05,24,04,08,8.20
2013,05,24,04,09,8.20
2013,05,24,04,10,8.20
2013,05,24,04,11,8.20
2013,05,24,04,12,8.20
2013,05,24,04,13,8.20
2013,05,24,04,14,8.20
2013,05,24,04,15,8.20
2013,05,24,04,16,8.20
2013,05,24,04,17,8.20
2013,05,24,04,18,8.20
2013,05,24,04,19,8.20
2013,05,24,04,20,8.20
2013,05,24,04,21,8.20
2013,05,24,04,22,8.20
2013,05,24,04,23,8.20
2013,05,24,04,24,8.20
2013,05,24,04,25,8.30
2013,05,24,04,26,8.20
2013,05,24,04,27,8.20
2013,05,24,04,28,8.20
2013,05,24,04,29,8.20
2013,05,24,04,30,8.20
2013,05,24,04,31,8.10
2013,05,24,04,32,8.10
2013,05,24,04,33,8.00
2013,05,24,04,34,8.00
2013,05,24,04,35,8.00
2013,05,24,04,36,8.00
2013,05,24,04,37,8.00
2013,05,24,04,38,8.10
2013,05,24,04,39,8.10
2013,05,24,04,40,8.20
2013,05,24,04,41,8.20
2013,05,24,04,42,8.20
2013,05,24,04,43,8.20
2013,05,24,04,44,8.20
2013,05,24,04,45,8.20
2013,05,24,04,46,8.20
2013,05,24,04,47,8.20
2013,05,24,04,48,8.20
2013,05,24,04,49,8.20
2013,05,24,04,50,8.20
2013,05,24,04,51,8.10
2013,05,24,04,52,8.10
2013,05,24,04,53,8.10
2013,05,24,04,54,8.00
2013,05,24,04,55,8.00
2013,05,24,04,56,8.00
2013,05,24,04,57,8.00
2013,05,24,04,58,8.00
2013,05,24,04,59,8.00
2013,05,24,05,00,8.10
2013,05,24,05,01,8.10
2013,05,24,05,02,8.10
2013,05,24,05,03,8.10
2013,05,24,05,04,8.20
2013,05,24,05,05,8.20
2013,05,24,05,06,8.20
2013,05,24,05,07,8.20
2013,05,24,05,08,8.20
2013,05,24,05,09,8.20
2013,05,24,05,10,8.20
2013,05,24,05,11,8.30
2013,05,24,05,12,8.30
2013,05,24,05,13,8.30
2013,05,24,05,14,8.30
2013,05,24,05,15,8.40
2013,05,24,05,16,8.40
2013,05,24,05,17,8.40
2013,05,24,05,18,8.30
2013,05,24,05,19,8.30
2013,05,24,05,20,8.30
2013,05,24,05,21,8.30
2013,05,24,05,22,8.20
2013,05,24,05,23,8.20
2013,05,24,05,24,8.20
2013,05,24,05,25,8.20
2013,05,24,05,26,8.10
2013,05,24,05,27,8.10
2013,05,24,05,28,8.10
2013,05,24,05,29,8.20
2013,05,24,05,30,8.20
2013,05,24,05,31,8.20
2013,05,24,05,32,8.20
2013,05,24,05,33,8.20
2013,05,24,05,34,8.20
2013,05,24,05,35,8.20
2013,05,24,05,36,8.20
2013,05,24,05,37,8.20
2013,05,24,05,38,8.20
2013,05,24,05,39,8.20
2013,05,24,05,40,8.20
2013,05,24,05,41,8.20
2013,05,24,05,42,8.10
2013,05,24,05,43,8.10
2013,05,24,05,44,8.10
2013,05,24,05,45,8.00
2013,05,24,05,46,8.00
2013,05,24,05,47,8.00
2013,05,24,05,48,8.00
2013,05,24,05,49,8.10
2013,05,24,05,50,8.10
2013,05,24,05,51,8.10
2013,05,24,05,52,8.10
2013,05,24,05,53,8.10
2013,05,24,05,54,8.10
2013,05,24,05,55,8.10
2013,05,24,05,56,8.10
2013,05,24,05,57,8.10
2013,05,24,05,58,8.10
2013,05,24,05,59,8.10
2013,05,24,06,00,8.10
2013,05,24,06,01,8.00
2013,05,24,06,02,8.00
2013,05,24,06,03,8.00
2013,05,24,06,04,8.00
2013,05,24,06,05,7.90
2013,05,24,06,06,7.90
2013,05,24,06,07,7.90
2013,05,24,06,08,7.90
2013,05,24,06,09,7.90
2013,05,24,06,10,7.90
2013,05,24,06,11,7.90
2013,05,24,06,12,7.90
2013,05,24,06,13,7.90
2013,05,24,06,14,7.80
2013,05,24,06,15,7.90
2013,05,24,06,16,7.90
2013,05,24,06,17,7.90
2013,05,24,06,18,8.00
2013,05,24,06,19,8.00
2013,05,24,06,20,8.00
2013,05,24,06,21,8.10
2013,05,24,06,22,8.10
2013,05,24,06,23,8.20
2013,05,24,06,24,8.20
2013,05,24,06,25,8.20
2013,05,24,06,26,8.30
2013,05,24,06,27,8.30
2013,05,24,06,28,8.40
2013,05,24,06,29,8.40
2013,05,24,06,30,8.40
2013,05,24,06,31,8.40
2013,05,24,06,32,8.50
2013,05,24,06,33,8.50
2013,05,24,06,34,8.50
2013,05,24,06,35,8.50
2013,05,24,06,36,8.50
2013,05,24,06,37,8.50
2013,05,24,06,38,8.50
2013,05,24,06,39,8.60
2013,05,24,06,40,8.60
2013,05,24,06,41,8.60
2013,05,24,06,42,8.60
2013,05,24,06,43,8.60
2013,05,24,06,44,8.60
2013,05,24,06,45,8.70
2013,05,24,06,46,8.70
2013,05,24,06,47,8.70
2013,05,24,06,48,8.70
2013,05,24,06,49,8.80
2013,05,24,06,50,8.80
2013,05,24,06,51,8.90
2013,05,24,06,52,8.90
2013,05,24,06,53,9.00
2013,05,24,06,54,9.00
2013,05,24,06,55,9.00
2013,05,24,06,56,9.10
2013,05,24,06,57,9.10
2013,05,24,06,58,9.10
2013,05,24,06,59,9.10
2013,05,24,07,00,9.20
2013,05,24,07,01,9.20
2013,05,24,07,02,9.20
2013,05,24,07,03,9.20
2013,05,24,07,04,9.20
2013,05,24,07,05,9.20
2013,05,24,07,06,9.20
2013,05,24,07,07,9.20
2013,05,24,07,08,9.20
2013,05,24,07,09,9.30
2013,05,24,07,10,9.30
2013,05,24,07,11,9.30
2013,05,24,07,12,9.30
2013,05,24,07,13,9.40
2013,05,24,07,14,9.40
2013,05,24,07,15,9.40
2013,05,24,07,16,9.40
2013,05,24,07,17,9.30
2013,05,24,07,18,9.30
2013,05,24,07,19,9.40
2013,05,24,07,20,9.40
2013,05,24,07,21,9.40
2013,05,24,07,22,9.40
2013,05,24,07,23,9.50
2013,05,24,07,24,9.50
2013,05,24,07,25,9.50
2013,05,24,07,26,9.60
2013,05,24,07,27,9.60
2013,05,24,07,28,9.70
2013,05,24,07,29,9.70
2013,05,24,07,30,9.70
2013,05,24,07,31,9.60
2013,05,24,07,32,9.60
2013,05,24,07,33,9.70
2013,05,24,07,34,9.70
2013,05,24,07,35,9.70
2013,05,24,07,36,9.70
2013,05,24,07,37,9.80
2013,05,24,07,38,9.90
2013,05,24,07,39,9.90
2013,05,24,07,40,9.90
2013,05,24,07,41,10.00
2013,05,24,07,42,10.10
2013,05,24,07,43,10.10
2013,05,24,07,44,10.10
2013,05,24,07,45,10.10
2013,05,24,07,46,10.10
2013,05,24,07,47,10.10
2013,05,24,07,48,10.10
2013,05,24,07,49,10.10
2013,05,24,07,50,10.10
2013,05,24,07,51,10.10
2013,05,24,07,52,10.10
2013,05,24,07,53,10.10
2013,05,24,07,54,10.10
2013,05,24,07,55,10.10
2013,05,24,07,56,10.10
2013,05,24,07,57,10.10
2013,05,24,07,58,10.10
2013,05,24,07,59,10.10
2013,05,24,08,00,10.20
2013,05,24,08,01,10.20
2013,05,24,08,02,10.20
2013,05,24,08,03,10.30
2013,05,24,08,04,10.30
2013,05,24,08,05,10.30
2013,05,24,08,06,10.40
2013,05,24,08,07,10.40
2013,05,24,08,08,10.40
2013,05,24,08,09,10.40
2013,05,24,08,10,10.40
2013,05,24,08,11,10.40
2013,05,24,08,12,10.30
2013,05,24,08,13,10.40
2013,05,24,08,14,10.40
2013,05,24,08,15,10.40
2013,05,24,08,16,10.40
2013,05,24,08,17,10.40
2013,05,24,08,18,10.40
2013,05,24,08,19,10.40
2013,05,24,08,20,10.60
2013,05,24,08,21,10.60
2013,05,24,08,22,10.60
2013,05,24,08,23,10.60
2013,05,24,08,24,10.50
2013,05,24,08,25,10.40
2013,05,24,08,26,10.50
2013,05,24,08,27,10.60
2013,05,24,08,28,10.60
2013,05,24,08,29,10.60
2013,05,24,08,30,10.60
2013,05,24,08,31,10.60
2013,05,24,08,32,10.60
2013,05,24,08,33,10.60
2013,05,24,08,34,10.70
2013,05,24,08,35,10.80
2013,05,24,08,36,10.90
2013,05,24,08,37,10.90
2013,05,24,08,38,11.00
2013,05,24,08,39,11.10
2013,05,24,08,40,11.10
2013,05,24,08,41,11.10
2013,05,24,08,42,11.10
2013,05,24,08,43,11.10
2013,05,24,08,44,11.10
2013,05,24,08,45,11.10
2013,05,24,08,46,11.20
2013,05,24,08,47,11.20
2013,05,24,08,48,11.30
2013,05,24,08,49,11.30
2013,05,24,08,50,11.30
2013,05,24,08,51,11.40
2013,05,24,08,52,11.40
2013,05,24,08,53,11.40
2013,05,24,08,54,11.40
2013,05,24,08,55,11.40
2013,05,24,08,56,11.40
2013,05,24,08,57,11.30
2013,05,24,08,58,11.30
2013,05,24,08,59,11.30
2013,05,24,09,00,11.20
2013,05,24,09,01,11.10
2013,05,24,09,02,11.10
2013,05,24,09,03,11.10
2013,05,24,09,04,11.20
2013,05,24,09,05,11.20
2013,05,24,09,06,11.30
2013,05,24,09,07,11.30
2013,05,24,09,08,11.20
2013,05,24,09,09,11.20
2013,05,24,09,10,11.20
2013,05,24,09,11,11.10
2013,05,24,09,12,11.10
2013,05,24,09,13,11.10
2013,05,24,09,14,11.10
2013,05,24,09,15,11.10
2013,05,24,09,16,11.10
2013,05,24,09,17,11.10
2013,05,24,09,18,11.20
2013,05,24,09,19,11.40
2013,05,24,09,20,11.50
2013,05,24,09,21,11.60
2013,05,24,09,22,11.60
2013,05,24,09,23,11.60
2013,05,24,09,24,11.60
2013,05,24,09,25,11.60
2013,05,24,09,26,11.70
2013,05,24,09,27,11.70
2013,05,24,09,28,11.70
2013,05,24,09,29,11.70
2013,05,24,09,30,11.70
2013,05,24,09,31,11.80
2013,05,24,09,32,11.80
2013,05,24,09,33,11.80
2013,05,24,09,34,11.80
2013,05,24,09,35,11.80
2013,05,24,09,36,11.80
2013,05,24,09,37,11.80
2013,05,24,09,38,11.80
2013,05,24,09,39,11.90
2013,05,24,09,40,11.90
2013,05,24,09,41,11.80
2013,05,24,09,42,11.80
2013,05,24,09,43,11.90
2013,05,24,09,44,11.80
2013,05,24,09,45,11.80
2013,05,24,09,46,11.80
2013,05,24,09,47,11.80
2013,05,24,09,48,11.80
2013,05,24,09,49,11.80
2013,05,24,09,50,11.80
2013,05,24,09,51,11.70
2013,05,24,09,52,11.70
2013,05,24,09,53,11.70
2013,05,24,09,54,11.60
2013,05,24,09,55,11.60
2013,05,24,09,56,11.60
2013,05,24,09,57,11.70
2013,05,24,09,58,11.70
2013,05,24,09,59,11.70
2013,05,24,10,00,11.80
2013,05,24,10,01,11.80
2013,05,24,10,02,11.80
2013,05,24,10,03,11.80
2013,05,24,10,04,11.80
2013,05,24,10,05,11.80
2013,05,24,10,06,11.90
2013,05,24,10,07,12.00
2013,05,24,10,08,12.00
2013,05,24,10,09,12.00
2013,05,24,10,10,11.90
2013,05,24,10,11,11.80
2013,05,24,10,12,11.80
2013,05,24,10,13,11.80
2013,05,24,10,14,11.90
2013,05,24,10,15,12.00
2013,05,24,10,16,11.90
2013,05,24,10,17,11.90
2013,05,24,10,18,12.00
2013,05,24,10,19,12.00
2013,05,24,10,20,12.00
2013,05,24,10,21,11.90
2013,05,24,10,22,11.90
2013,05,24,10,23,11.90
2013,05,24,10,24,11.90
2013,05,24,10,25,11.80
2013,05,24,10,26,11.80
2013,05,24,10,27,11.80
2013,05,24,10,28,11.90
2013,05,24,10,29,12.00
2013,05,24,10,30,12.00
2013,05,24,10,31,11.90
2013,05,24,10,32,11.90
2013,05,24,10,33,11.90
2013,05,24,10,34,11.80
2013,05,24,10,35,11.90
2013,05,24,10,36,11.90
2013,05,24,10,37,11.90
2013,05,24,10,38,11.90
2013,05,24,10,39,12.00
2013,05,24,10,40,12.00
2013,05,24,10,41,11.90
2013,05,24,10,42,11.90
2013,05,24,10,43,12.00
2013,05,24,10,44,12.10
2013,05,24,10,45,12.10
2013,05,24,10,46,12.20
2013,05,24,10,47,12.20
2013,05,24,10,48,12.30
2013,05,24,10,49,12.30
2013,05,24,10,50,12.40
2013,05,24,10,51,12.40
2013,05,24,10,52,12.50
2013,05,24,10,53,12.40
2013,05,24,10,54,12.40
2013,05,24,10,55,12.50
2013,05,24,10,56,12.60
2013,05,24,10,57,12.70
2013,05,24,10,58,12.60
2013,05,24,10,59,12.70
2013,05,24,11,00,12.70
2013,05,24,11,01,12.80
2013,05,24,11,02,12.80
2013,05,24,11,03,12.80
2013,05,24,11,04,12.80
2013,05,24,11,05,12.80
2013,05,24,11,06,12.80
2013,05,24,11,07,12.70
2013,05,24,11,08,12.80
2013,05,24,11,09,12.90
2013,05,24,11,10,13.00
2013,05,24,11,11,13.20
2013,05,24,11,12,13.30
2013,05,24,11,13,13.30
2013,05,24,11,14,13.30
2013,05,24,11,15,13.20
2013,05,24,11,16,13.20
2013,05,24,11,17,13.20
2013,05,24,11,18,13.10
2013,05,24,11,19,13.10
2013,05,24,11,20,13.20
2013,05,24,11,21,13.30
2013,05,24,11,22,13.30
2013,05,24,11,23,13.30
2013,05,24,11,24,13.10
2013,05,24,11,25,13.00
2013,05,24,11,26,12.90
2013,05,24,11,27,12.80
2013,05,24,11,28,12.80
2013,05,24,11,29,12.90
2013,05,24,11,30,13.00
2013,05,24,11,31,13.10
2013,05,24,11,32,13.30
2013,05,24,11,33,13.20
2013,05,24,11,34,13.20
2013,05,24,11,35,13.10
2013,05,24,11,36,13.00
2013,05,24,11,37,13.10
2013,05,24,11,38,13.10
2013,05,24,11,39,13.00
2013,05,24,11,40,12.80
2013,05,24,11,41,12.80
2013,05,24,11,42,12.80
2013,05,24,11,43,12.90
2013,05,24,11,44,12.90
2013,05,24,11,45,13.00
2013,05,24,11,46,13.10
2013,05,24,11,47,13.10
2013,05,24,11,48,13.10
2013,05,24,11,49,13.00
2013,05,24,11,50,13.00
2013,05,24,11,51,13.10
2013,05,24,11,52,13.20
2013,05,24,11,53,13.10
2013,05,24,11,54,13.00
2013,05,24,11,55,13.00
2013,05,24,11,56,13.00
2013,05,24,11,57,12.90
2013,05,24,11,58,12.80
2013,05,24,11,59,12.80
2013,05,24,12,00,12.80
2013,05,24,12,01,12.80
2013,05,24,12,02,12.90
2013,05,24,12,03,13.10
2013,05,24,12,04,13.20
2013,05,24,12,05,13.10
2013,05,24,12,06,13.10
2013,05,24,12,07,13.10
2013,05,24,12,08,13.10
2013,05,24,12,09,13.10
2013,05,24,12,10,13.20
2013,05,24,12,11,13.30
2013,05,24,12,12,13.30
2013,05,24,12,13,13.30
2013,05,24,12,14,13.30
2013,05,24,12,15,13.30
2013,05,24,12,16,13.40
2013,05,24,12,17,13.60
2013,05,24,12,18,13.60
2013,05,24,12,19,13.60
2013,05,24,12,20,13.50
2013,05,24,12,21,13.40
2013,05,24,12,22,13.40
2013,05,24,12,23,13.40
2013,05,24,12,24,13.40
2013,05,24,12,25,13.40
2013,05,24,12,26,13.40
2013,05,24,12,27,13.40
2013,05,24,12,28,13.30
2013,05,24,12,29,13.30
2013,05,24,12,30,13.30
2013,05,24,12,31,13.40
2013,05,24,12,32,13.60
2013,05,24,12,33,13.60
2013,05,24,12,34,13.70
2013,05,24,12,35,13.70
2013,05,24,12,36,13.70
2013,05,24,12,37,13.60
2013,05,24,12,38,13.60
2013,05,24,12,39,13.60
2013,05,24,12,40,13.70
2013,05,24,12,41,13.70
2013,05,24,12,42,13.50
2013,05,24,12,43,13.50
2013,05,24,12,44,13.50
2013,05,24,12,45,13.50
2013,05,24,12,46,13.40
2013,05,24,12,47,13.30
2013,05,24,12,48,13.30
2013,05,24,12,49,13.20
2013,05,24,12,50,13.30
2013,05,24,12,51,13.30
2013,05,24,12,52,13.40
2013,05,24,12,53,13.50
2013,05,24,12,54,13.40
2013,05,24,12,55,13.40
2013,05,24,12,56,13.30
2013,05,24,12,57,13.10
2013,05,24,12,58,13.20
2013,05,24,12,59,13.10
2013,05,24,13,00,13.20
2013,05,24,13,01,13.30
2013,05,24,13,02,13.30
2013,05,24,13,03,13.30
2013,05,24,13,04,13.20
2013,05,24,13,05,13.30
2013,05,24,13,06,13.30
2013,05,24,13,07,13.30
2013,05,24,13,08,13.40
2013,05,24,13,09,13.50
2013,05,24,13,10,13.50
2013,05,24,13,11,13.60
2013,05,24,13,12,13.60
2013,05,24,13,13,13.50
2013,05,24,13,14,13.60
2013,05,24,13,15,13.60
2013,05,24,13,16,13.70
2013,05,24,13,17,13.70
2013,05,24,13,18,13.80
2013,05,24,13,19,13.90
2013,05,24,13,20,13.90
2013,05,24,13,21,13.90
2013,05,24,13,22,13.90
2013,05,24,13,23,13.90
2013,05,24,13,24,13.80
2013,05,24,13,25,13.70
2013,05,24,13,26,13.80
2013,05,24,13,27,13.70
2013,05,24,13,28,13.80
2013,05,24,13,29,13.90
2013,05,24,13,30,13.90
2013,05,24,13,31,14.00
2013,05,24,13,32,14.00
2013,05,24,13,33,14.00
2013,05,24,13,34,14.10
2013,05,24,13,35,14.10
2013,05,24,13,36,14.00
2013,05,24,13,37,13.90
2013,05,24,13,38,13.70
2013,05,24,13,39,13.60
2013,05,24,13,40,13.60
2013,05,24,13,41,13.70
2013,05,24,13,42,13.80
2013,05,24,13,43,13.70
2013,05,24,13,44,13.70
2013,05,24,13,45,13.80
2013,05,24,13,46,13.90
2013,05,24,13,47,13.90
2013,05,24,13,48,13.80
2013,05,24,13,49,13.80
2013,05,24,13,50,13.90
2013,05,24,13,51,13.80
2013,05,24,13,52,13.70
2013,05,24,13,53,13.80
2013,05,24,13,54,13.80
2013,05,24,13,55,13.90
2013,05,24,13,56,13.80
2013,05,24,13,57,13.90
2013,05,24,13,58,14.00
2013,05,24,13,59,13.90
2013,05,24,14,00,13.90
2013,05,24,14,01,14.00
2013,05,24,14,02,14.00
2013,05,24,14,03,14.00
2013,05,24,14,04,14.10
2013,05,24,14,05,14.30
2013,05,24,14,06,14.30
2013,05,24,14,07,14.10
2013,05,24,14,08,14.00
2013,05,24,14,09,14.00
2013,05,24,14,10,14.00
2013,05,24,14,11,14.00
2013,05,24,14,12,14.00
2013,05,24,14,13,14.10
2013,05,24,14,14,14.10
2013,05,24,14,15,14.20
2013,05,24,14,16,14.20
2013,05,24,14,17,14.30
2013,05,24,14,18,14.30
2013,05,24,14,19,14.30
2013,05,24,14,20,14.30
2013,05,24,14,21,14.40
2013,05,24,14,22,14.40
2013,05,24,14,23,14.40
2013,05,24,14,24,14.40
2013,05,24,14,25,14.40
2013,05,24,14,26,14.20
2013,05,24,14,27,14.10
2013,05,24,14,28,14.00
2013,05,24,14,29,14.10
2013,05,24,14,30,14.20
2013,05,24,14,31,14.40
2013,05,24,14,32,14.60
2013,05,24,14,33,14.80
2013,05,24,14,34,15.00
2013,05,24,14,35,15.00
2013,05,24,14,36,15.10
2013,05,24,14,37,15.10
2013,05,24,14,38,15.10
2013,05,24,14,39,15.20
2013,05,24,14,40,15.10
2013,05,24,14,41,15.00
2013,05,24,14,42,14.90
2013,05,24,14,43,14.90
2013,05,24,14,44,15.00
2013,05,24,14,45,15.10
2013,05,24,14,46,15.20
2013,05,24,14,47,15.30
2013,05,24,14,48,15.40
2013,05,24,14,49,15.40
2013,05,24,14,50,15.30
2013,05,24,14,51,15.40
2013,05,24,14,52,15.50
2013,05,24,14,53,15.30
2013,05,24,14,54,15.30
2013,05,24,14,55,15.30
2013,05,24,14,56,15.30
2013,05,24,14,57,15.40
2013,05,24,14,58,15.40
2013,05,24,14,59,15.30
2013,05,24,15,00,15.20
2013,05,24,15,01,15.10
2013,05,24,15,02,15.00
2013,05,24,15,03,15.00
2013,05,24,15,04,15.10
2013,05,24,15,05,15.00
2013,05,24,15,06,14.90
2013,05,24,15,07,14.90
2013,05,24,15,08,15.00
2013,05,24,15,09,15.10
2013,05,24,15,10,15.20
2013,05,24,15,11,15.30
2013,05,24,15,12,15.50
2013,05,24,15,13,15.70
2013,05,24,15,14,15.80
2013,05,24,15,15,15.80
2013,05,24,15,16,15.60
2013,05,24,15,17,15.40
2013,05,24,15,18,15.30
2013,05,24,15,19,15.20
2013,05,24,15,20,15.20
2013,05,24,15,21,15.10
2013,05,24,15,22,15.20
2013,05,24,15,23,15.30
2013,05,24,15,24,15.30
2013,05,24,15,25,15.30
2013,05,24,15,26,15.40
2013,05,24,15,27,15.40
2013,05,24,15,28,15.50
2013,05,24,15,29,15.60
2013,05,24,15,30,15.80
2013,05,24,15,31,15.80
2013,05,24,15,32,15.70
2013,05,24,15,33,15.70
2013,05,24,15,34,15.50
2013,05,24,15,35,15.40
2013,05,24,15,36,15.40
2013,05,24,15,37,15.40
2013,05,24,15,38,15.50
2013,05,24,15,39,15.70
2013,05,24,15,40,15.80
2013,05,24,15,41,15.70
2013,05,24,15,42,15.60
2013,05,24,15,43,15.60
2013,05,24,15,44,15.50
2013,05,24,15,45,15.60
2013,05,24,15,46,15.70
2013,05,24,15,47,15.90
2013,05,24,15,48,16.10
2013,05,24,15,49,16.20
2013,05,24,15,50,16.30
2013,05,24,15,51,16.20
2013,05,24,15,52,16.30
2013,05,24,15,53,16.10
2013,05,24,15,54,15.90
2013,05,24,15,55,15.90
2013,05,24,15,56,15.80
2013,05,24,15,57,15.70
2013,05,24,15,58,15.60
2013,05,24,15,59,15.70
2013,05,24,16,00,15.70
2013,05,24,16,01,15.80
2013,05,24,16,02,15.80
2013,05,24,16,03,15.80
2013,05,24,16,04,15.80
2013,05,24,16,05,15.80
2013,05,24,16,06,15.90
2013,05,24,16,07,15.90
2013,05,24,16,08,16.00
2013,05,24,16,09,15.90
2013,05,24,16,10,15.80
2013,05,24,16,11,15.80
2013,05,24,16,12,15.90
2013,05,24,16,13,16.00
2013,05,24,16,14,16.10
2013,05,24,16,15,16.10
2013,05,24,16,16,16.00
2013,05,24,16,17,15.90
2013,05,24,16,18,15.90
2013,05,24,16,19,16.00
2013,05,24,16,20,16.10
2013,05,24,16,21,16.10
2013,05,24,16,22,16.20
2013,05,24,16,23,16.40
2013,05,24,16,24,16.60
2013,05,24,16,25,16.70
2013,05,24,16,26,16.70
2013,05,24,16,27,16.80
2013,05,24,16,28,16.80
2013,05,24,16,29,16.70
2013,05,24,16,30,16.70
2013,05,24,16,31,16.60
2013,05,24,16,32,16.60
2013,05,24,16,33,16.50
2013,05,24,16,34,16.40
2013,05,24,16,35,16.40
2013,05,24,16,36,16.40
2013,05,24,16,37,16.30
2013,05,24,16,38,16.40
2013,05,24,16,39,16.40
2013,05,24,16,40,16.40
2013,05,24,16,41,16.40
2013,05,24,16,42,16.50
2013,05,24,16,43,16.60
2013,05,24,16,44,16.50
2013,05,24,16,45,16.40
2013,05,24,16,46,16.40
2013,05,24,16,47,16.30
2013,05,24,16,48,16.20
2013,05,24,16,49,16.10
2013,05,24,16,50,16.10
2013,05,24,16,51,16.10
2013,05,24,16,52,16.00
2013,05,24,16,53,16.00
2013,05,24,16,54,16.10
2013,05,24,16,55,16.00
2013,05,24,16,56,15.90
2013,05,24,16,57,15.90
2013,05,24,16,58,15.80
2013,05,24,16,59,15.80
2013,05,24,17,00,15.80
2013,05,24,17,01,15.80
2013,05,24,17,02,15.90
2013,05,24,17,03,15.90
2013,05,24,17,04,16.10
2013,05,24,17,05,16.10
2013,05,24,17,06,16.10
2013,05,24,17,07,16.20
2013,05,24,17,08,16.30
2013,05,24,17,09,16.30
2013,05,24,17,10,16.20
2013,05,24,17,11,16.20
2013,05,24,17,12,16.20
2013,05,24,17,13,16.20
2013,05,24,17,14,16.30
2013,05,24,17,15,16.20
2013,05,24,17,16,16.10
2013,05,24,17,17,16.10
2013,05,24,17,18,16.10
2013,05,24,17,19,16.10
2013,05,24,17,20,16.10
2013,05,24,17,21,16.10
2013,05,24,17,22,16.10
2013,05,24,17,23,16.10
2013,05,24,17,24,16.10
2013,05,24,17,25,16.10
2013,05,24,17,26,16.20
2013,05,24,17,27,16.30
2013,05,24,17,28,16.40
2013,05,24,17,29,16.40
2013,05,24,17,30,16.40
2013,05,24,17,31,16.40
2013,05,24,17,32,16.40
2013,05,24,17,33,16.40
2013,05,24,17,34,16.40
2013,05,24,17,35,16.40
2013,05,24,17,36,16.40
2013,05,24,17,37,16.60
2013,05,24,17,38,16.50
2013,05,24,17,39,16.40